Tracking 35237 objects as of 5-Sep-2026
HD Live streaming from Space Station
objects crossing your sky now

NOAA 17 DEB

Track NOAA 17 DEB now!
10-day predictions


NORAD ID: 48753
Int'l Code: 2002-032CP
Launch date: June 24, 2002
Source: United States (US)
Launch site: AIR FORCE WESTERN TEST RANGE (AFWTR)

Note: This is SATELLITE DEBRIS
Your satellite tracking list
Your tracking list is empty




NASA's NSSDC Master Catalog

Two Line Element Set (TLE):
1 48753U 02032CN  26248.23407771  .00004566  00000-0  94335-3 0  9995
2 48753  98.7428 243.8843 0019069 301.3099  58.6233 14.60782238285215
Source of the keplerian elements: AFSPC